SL-14 DEB, 45294

Orbit data source: Space-Track

SL-14 DEB, 45294 is space debris in LEO originally from a launch on Thu, 15 Aug 1991 UTC launched from the Plesetsk Missile And Space Complex (PKMTR). Debris objects in space refer to the collection of defunct objects orbiting the Earth. Examples of debris include non-operational satellites, rocket bodies, and fragments generated from explosions, collisions, or faulty payload assembly.

Loading next visibility...
Identifier
45294, 1991-056AG
Orbit
LEO
Last TLE update
1 day ago
Origin
Manufacturer
Unknown
Mission
Spacecraft
Bus & Motor
Unknown
Mass
Unknown
Launch date (UTC)
1991-08-15 (34 years ago)
Launch vehicle
Unknown
Launch site
Plesetsk Missile And Space Complex (PKMTR)
Object type
Payload
Rocket body
Debris
Shape & HBR
Unknown
Radar Cross Section
Small (<0.1 m²)

Expand to show TLE details & history

TLE from 1 day ago
0 SL-14 DEB
1 45294U 91056AG  25128.23663924  .00001091  00000-0  26500-2 0  9994
2 45294  82.5669  63.8956 0016985  41.2049 319.0354 13.20792246250297
Epoch: 2025-05-08T05:40Z
Definitive object data (Epoch: 2025-05-08T05:40:45.63Z)
Latitude
-0.00004°
Longitude
112.39544°
Altitude
1,174.82 km
Speed
7.271 km/s
True Right ascension
04h 15m 34s
True Declination
0° 00' 00"
Sunlit
Object was in daylight at TLE epoch
Visualization TLE readout
Latitude
-68.11197°
Longitude
-49.49062°
Altitude
1,218.382 km
Speed
7.239 km/s
Apparent Right ascension
00h 26m 46s
Apparent Declination
-73° 15' 50"
Sunlit
Object is in full shadow
Visualization observer readout
Local Sidereal Time
14:43:09
Azimuth
164.485° S
Elevation
-52.881°
Doppler factor
1
Orbital elements
Apogee altitude
1,191.77 km
Perigee altitude
1,166.098 km
Semi-major axis
7,557.071 km
Eccentricity
0.0016985
Inclination
82.5669°
RAAN
63.8956°
Arg. of periapsis
41.2049°
True anomaly
318.90759°
Mean anomaly
319.0354°
Eccentric anomaly
318.97152°
Mean motion
3.30379 °/min
BSTAR
0.00265
Orbital period
108.97 mins
Loading maneuver chart data...
Loading SW <> Apogee altitude chart data...
Loading historical data...
Loading historical data...
Loading historical data...
Loading historical data...
Loading historical data...
Loading historical data...
Loading historical data...

SL-14 DEB Visibility forecast

Observer location: undefined°, undefined°

Span
Click to sort rows by Start time (UTC) header in descending order
Start Az.
Max El. time (UTC)
Max El. Az.
Max El.
End time (UTC)
End Az.
14 mins2025-05-09 07:43:18.366Z348.872° N2025-05-09 07:50:18.366Z255.186° W44.103°2025-05-09 07:57:18.366Z181.635° SSW
12 mins2025-05-09 19:58:18.366Z169.336° S2025-05-09 20:03:18.366Z103.926° ESE42.087°2025-05-09 20:10:18.366Z14.043° NNE
9 mins2025-05-09 21:50:18.366Z254.124° W2025-05-09 21:54:18.366Z295.193° NW20.542°2025-05-09 21:59:18.366Z340.235° N
5 mins2025-05-10 05:35:18.366Z46.512° ENE2025-05-10 05:37:18.366Z64.576° ENE14.078°2025-05-10 05:40:18.366Z90.514° ESE
|